[[{"header":{"parameterUnit":"m.s-1","parameterCategory":1,"la1":30.2991,"la2":30.254,"lo1":-89.0895,"lo2":-89.0444,"dy":0.0017,"dx":0.0017,"nx":28,"ny":28,"refTime":"2023-05-28T21:00:00:Z","depth":0,"parameterNumber":2,"parameterNumberName":"U-component_of_WINDS"},"data":[0,0,0,0,0,0,0,0,0,0,0,0,0,0,0,0,0,0,0,0,0,0,0,0,0,0,0,0,0,0,0,0,0,0,0,0,0,0,0,0,0,0,0,0,0,0,0,0,0,0,0,0,0,0,0,0,0,0,-1.3331,-1.333,0,-1.3297,-1.3296,-1.3296,-1.327,-1.327,-1.327,-1.327,-1.3235,-1.3234,-1.3233,0,0,0,0,0,0,0,0,0,0,0,0,0,-1.3377,-1.3376,-1.3331,-1.333,-1.333,-1.3297,-1.3296,-1.3296,-1.3271,-1.327,-1.327,-1.327,-1.3235,-1.3234,-1.3233,0,0,0,0,0,0,0,0,0,0,0,0,0,-1.3351,-1.3376,-1.3331,-1.3313,-1.3311,-1.3297,-1.3296,-1.3296,-1.3271,-1.327,-1.327,-1.327,-1.3235,-1.3234,-1.3233,-1.3233,0,0,-1.323,-1.3229,0,0,0,0,0,0,0,0,-1.3353,-1.335,-1.3316,-1.3315,-1.3312,-1.3288,-1.33,-1.3275,-1.3271,-1.3286,-1.327,-1.3269,-1.3253,-1.325,-1.3244,-1.3231,-1.323,-1.323,-1.3229,-1.3229,-1.3228,0,0,0,0,0,0,0,-1.3355,-1.3351,-1.3317,-1.3316,-1.3314,-1.3308,-1.3304,-1.3295,-1.3272,-1.3285,-1.3283,-1.3279,-1.3251,-1.3245,-1.3243,-1.3229,-1.323,-1.3229,-1.3228,-1.3228,-1.3219,-1.322,0,0,0,0,0,0,-1.3359,-1.3353,-1.3318,-1.3316,-1.3332,-1.3308,-1.3303,-1.3296,-1.3272,-1.3268,-1.3279,-1.3278,-1.3247,-1.3245,-1.3242,-1.3242,-1.3229,-1.3227,-1.3227,-1.3219,-1.3219,-1.322,0,0,0,0,0,0,-1.336,-1.3356,-1.332,-1.3334,-1.3329,-1.3307,-1.3299,-1.3295,-1.3289,-1.3268,-1.3264,-1.3277,-1.3247,-1.3243,-1.3236,-1.324,-1.3227,-1.3226,-1.3218,-1.3219,-1.322,-1.3241,0,0,0,0,0,0,-1.3361,-1.3357,-1.3355,-1.3334,-1.3328,-1.3313,-1.3299,-1.3295,-1.3287,-1.3285,-1.3265,-1.3261,-1.3247,-1.3238,-1.3235,-1.3239,-1.3225,-1.3218,-1.3219,-1.3219,-1.324,-1.3242,-1.3245,0,0,0,0,0,-1.3363,-1.3362,-1.3355,-1.3351,-1.3326,-1.3314,-1.331,-1.3294,-1.3288,-1.3287,-1.3274,-1.3261,-1.3241,-1.3238,-1.3234,-1.3237,-1.3217,-1.3218,-1.3219,-1.3239,-1.3242,-1.3245,0,0,0,0,0,0,-1.3382,-1.3358,-1.3351,-1.3342,-1.3331,-1.3309,-1.3307,-1.3297,-1.3286,-1.3285,-1.3265,-1.3261,-1.3256,-1.3247,-1.3243,-1.3238,-1.3228,-1.3228,-1.3244,-1.3247,-1.3249,-1.3251,-1.3224,0,0,0,0,0,-1.3386,-1.3377,-1.3357,-1.3352,-1.3347,-1.3329,-1.3322,-1.3311,-1.3298,-1.3293,-1.3279,-1.3267,-1.3258,-1.3252,-1.3243,-1.324,-1.3236,-1.3241,-1.3243,-1.3245,-1.3245,-1.3246,-1.3248,-1.3223,-1.3223,-1.3223,0,0,-1.3392,-1.3378,-1.3373,-1.3355,-1.3345,-1.3338,-1.3324,-1.3316,-1.3311,-1.3291,-1.3284,-1.3274,-1.326,-1.3256,-1.3253,-1.3247,-1.3252,-1.3247,-1.3248,-1.3247,-1.3247,-1.3249,-1.3251,-1.3224,-1.3224,-1.3223,0,0,-1.3399,-1.3388,-1.3383,-1.3374,-1.3359,-1.3348,-1.3347,-1.3329,-1.3322,-1.3315,-1.3301,-1.3296,-1.328,-1.3272,-1.3265,-1.3277,-1.3265,-1.3274,-1.3285,-1.3286,-1.3288,-1.329,-1.3294,-1.3296,-1.3275,-1.3275,-1.3275,0,-1.3408,-1.3396,-1.3382,-1.3376,-1.3369,-1.3354,-1.335,-1.3342,-1.3325,-1.3321,-1.3316,-1.3299,-1.3288,-1.3283,-1.3286,-1.3281,-1.3281,-1.3275,-1.3289,-1.3291,-1.3292,-1.3296,-1.3298,-1.3276,-1.3276,-1.3276,-1.3276,0,-1.341,-1.3402,-1.34,-1.3386,-1.3379,-1.3374,-1.3361,-1.3357,-1.3348,-1.3338,-1.3333,-1.3321,-1.331,-1.3309,-1.3299,-1.3303,-1.3301,-1.3293,-1.3281,-1.3296,-1.3299,-1.3301,-1.3278,-1.3277,-1.3277,-1.3277,0,0,-1.3422,-1.3404,-1.3403,-1.3398,-1.3383,-1.3378,-1.3375,-1.3365,-1.3362,-1.3353,-1.335,-1.334,-1.3334,-1.3327,-1.3318,-1.3319,-1.333,-1.3311,-1.331,-1.3315,-1.3336,-1.3341,-1.3343,-1.3324,-1.3325,-1.3325,-1.3337,0,-1.3427,-1.3419,-1.3408,-1.3404,-1.3398,-1.3387,-1.3384,-1.3376,-1.3368,-1.3363,-1.3355,-1.3349,-1.3341,-1.3337,-1.3338,-1.3328,-1.3334,-1.3328,-1.3322,-1.3322,-1.3324,-1.3345,-1.3349,-1.336,-1.3338,-1.3339,-1.3339,0,-1.343,-1.3423,-1.3418,-1.3408,-1.3405,-1.3402,-1.3395,-1.339,-1.3382,-1.3377,-1.3372,-1.3363,-1.3361,-1.3354,-1.3352,-1.3348,-1.3346,-1.3342,-1.3342,-1.3339,-1.3329,-1.3341,-1.3364,-1.3365,-1.3341,-1.3341,-1.3341,0,-1.344,-1.343,-1.3427,-1.3422,-1.341,-1.3409,-1.3404,-1.3396,-1.3392,-1.3387,-1.3384,-1.3379,-1.3375,-1.3372,-1.3363,-1.3358,-1.3362,-1.3353,-1.3358,-1.3359,-1.3357,-1.3357,-1.3378,-1.3359,-1.3359,-1.3359,-1.3359,0,-1.3445,-1.3443,-1.3431,-1.3429,-1.3427,-1.3417,-1.3416,-1.341,-1.3404,-1.3402,-1.3393,-1.3391,-1.338,-1.3377,-1.3371,-1.3371,-1.337,-1.3366,-1.3364,-1.3366,-1.3366,-1.3362,-1.336,-1.3359,-1.3359,-1.3359,-1.3359,0,-1.3455,-1.3447,-1.3442,-1.3433,-1.3431,-1.343,-1.3422,-1.3421,-1.3415,-1.3413,-1.3412,-1.3402,-1.34,-1.3391,-1.3386,-1.3382,-1.3384,-1.3381,-1.3386,-1.3385,-1.339,-1.339,-1.3408,-1.3411,-1.3391,-1.3391,-1.3391,0,-1.3457,-1.3456,-1.3447,-1.3445,-1.3441,-1.3438,-1.3435,-1.3427,-1.3425,-1.3419,-1.3419,-1.3416,-1.3412,-1.3409,-1.3403,-1.34,-1.3396,-1.3403,-1.3395,-1.3398,-1.3396,-1.3395,-1.3396,-1.3404,-1.3404,-1.3404,-1.3404,0,-1.3463,-1.3461,-1.3457,-1.3453,-1.3451,-1.3447,-1.3443,-1.3442,-1.3434,-1.3432,-1.343,-1.3428,-1.3424,-1.3422,-1.3419,-1.3415,-1.3409,-1.3408,-1.3409,-1.3409,-1.3412,-1.3411,-1.339,-1.3406,-1.3406,-1.3406,-1.3406,-1.3406,-1.3469,-1.3468,-1.3463,-1.346,-1.3457,-1.3455,-1.3454,-1.3449,-1.3447,-1.3444,-1.344,-1.3439,-1.3436,-1.3431,-1.3429,-1.3429,-1.3425,-1.3426,-1.3426,-1.3427,-1.3428,-1.3415,-1.3429,-1.3429,-1.3429,-1.3429,-1.3429,0,-1.3474,-1.3471,-1.3469,-1.3465,-1.3464,-1.346,-1.3457,-1.3456,-1.3455,-1.3453,-1.3451,-1.3451,-1.345,-1.3445,-1.3444,-1.3446,-1.3443,-1.3446,-1.3444,-1.3444,-1.3431,-1.343,-1.3448,-1.3448,-1.3448,-1.3448,-1.3448,-1.3448,-1.3476,-1.3475,-1.3473,-1.3472,-1.3469,-1.3468,-1.3467,-1.3466,-1.3464,-1.3464,-1.3463,-1.3461,-1.3459,-1.3459,-1.3459,-1.3458,-1.3458,-1.3461,-1.3459,-1.3447,-1.3445,-1.3443,-1.3442,-1.3462,-1.3462,-1.3472,-1.3472,-1.3472]},{"header":{"parameterUnit":"m.s-1","parameterCategory":1,"la1":30.2991,"la2":30.254,"lo1":-89.0895,"lo2":-89.0444,"dy":0.0017,"dx":0.0017,"nx":28,"ny":28,"refTime":"2023-05-28T21:00:00:Z","depth":0,"parameterNumber":3,"parameterNumberName":"V-component_of_WINDS"},"data":[0,0,0,0,0,0,0,0,0,0,0,0,0,0,0,0,0,0,0,0,0,0,0,0,0,0,0,0,0,0,0,0,0,0,0,0,0,0,0,0,0,0,0,0,0,0,0,0,0,0,0,0,0,0,0,0,0,0,3.4427,3.4427,0,3.4413,3.4413,3.4413,3.4445,3.4446,3.4447,3.4448,3.4428,3.4426,3.4425,0,0,0,0,0,0,0,0,0,0,0,0,0,3.4478,3.4477,3.4427,3.4427,3.4427,3.4413,3.4413,3.4413,3.4445,3.4446,3.4447,3.4448,3.4428,3.4427,3.4425,0,0,0,0,0,0,0,0,0,0,0,0,0,3.4459,3.4476,3.4427,3.4441,3.4442,3.4413,3.4413,3.4412,3.4444,3.4446,3.4447,3.4449,3.4429,3.4427,3.4425,3.4379,0,0,3.4418,3.4417,0,0,0,0,0,0,0,0,3.446,3.4457,3.4439,3.444,3.4441,3.4432,3.4423,3.4401,3.4444,3.4443,3.4448,3.445,3.4428,3.4426,3.4419,3.4378,3.4377,3.4417,3.4416,3.4415,3.4414,0,0,0,0,0,0,0,3.4461,3.4458,3.4421,3.4439,3.444,3.4447,3.4446,3.4419,3.4427,3.4443,3.4446,3.4444,3.4429,3.4421,3.4419,3.4377,3.4417,3.4415,3.4414,3.4413,3.4299,3.4297,0,0,0,0,0,0,3.4461,3.4458,3.4422,3.4421,3.4455,3.4445,3.4444,3.4433,3.4427,3.4428,3.4443,3.4446,3.4425,3.4422,3.4419,3.4365,3.4415,3.4413,3.4412,3.4301,3.4298,3.4297,0,0,0,0,0,0,3.4462,3.4458,3.4422,3.444,3.4436,3.4442,3.4431,3.4432,3.4425,3.4427,3.4428,3.4434,3.4426,3.4422,3.4389,3.4365,3.4412,3.441,3.4303,3.43,3.4298,3.4257,0,0,0,0,0,0,3.4463,3.4458,3.4441,3.444,3.4435,3.4394,3.4429,3.4431,3.4422,3.4426,3.4419,3.4419,3.4427,3.4393,3.4387,3.4362,3.4408,3.4305,3.4301,3.4298,3.4261,3.4254,3.4248,0,0,0,0,0,3.4465,3.4429,3.444,3.4436,3.4415,3.4393,3.439,3.4401,3.442,3.4403,3.4404,3.442,3.4369,3.4389,3.4383,3.4357,3.4306,3.4302,3.4299,3.4264,3.4255,3.4248,0,0,0,0,0,0,3.4425,3.4429,3.4441,3.4404,3.4398,3.4398,3.4377,3.4391,3.4378,3.4381,3.4394,3.4392,3.4357,3.4354,3.4376,3.4314,3.4341,3.4336,3.4316,3.4308,3.4302,3.4302,3.4406,0,0,0,0,0,3.4412,3.4395,3.4399,3.4366,3.4363,3.437,3.4361,3.437,3.4363,3.436,3.4359,3.4351,3.4333,3.4321,3.4305,3.4262,3.426,3.4241,3.4235,3.423,3.4224,3.4201,3.4193,3.4284,3.4284,3.4284,0,0,3.4384,3.4385,3.4373,3.4358,3.4354,3.4335,3.4368,3.4346,3.4331,3.4356,3.4326,3.4325,3.4317,3.4279,3.4262,3.4275,3.4199,3.4225,3.422,3.4218,3.4197,3.4188,3.418,3.4282,3.4282,3.4283,0,0,3.4324,3.4323,3.4296,3.4292,3.4287,3.4293,3.4287,3.4285,3.4286,3.4257,3.4276,3.4258,3.4227,3.4221,3.4213,3.4154,3.4167,3.4148,3.4113,3.4091,3.4083,3.4077,3.4055,3.4047,3.4143,3.4143,3.4143,0,3.429,3.4263,3.4279,3.4256,3.4249,3.4274,3.4246,3.4241,3.423,3.4224,3.424,3.4203,3.4199,3.416,3.4146,3.414,3.4132,3.4148,3.4084,3.4077,3.4071,3.405,3.4042,3.4141,3.4141,3.4141,3.4142,0,3.4221,3.4202,3.418,3.4172,3.4162,3.4136,3.4147,3.4136,3.4147,3.4151,3.412,3.4117,3.4101,3.4093,3.4102,3.4056,3.4064,3.4082,3.4109,3.406,3.404,3.4033,3.4138,3.4138,3.4139,3.414,0,0,3.4131,3.4134,3.4126,3.4123,3.4121,3.4106,3.4082,3.4068,3.4057,3.405,3.4029,3.4004,3.4021,3.4013,3.4022,3.4003,3.3955,3.4023,3.4023,3.4009,3.3903,3.3888,3.3879,3.3966,3.3964,3.3963,3.3903,0,3.4071,3.4031,3.4046,3.4004,3.3987,3.4012,3.3991,3.3987,3.399,3.3975,3.3979,3.3961,3.3985,3.398,3.3963,3.3965,3.3934,3.397,3.3944,3.3943,3.3944,3.3869,3.3853,3.3796,3.3896,3.3894,3.3894,0,3.3994,3.3986,3.3943,3.3946,3.3939,3.392,3.3909,3.3895,3.3891,3.3896,3.3888,3.3902,3.3877,3.3907,3.3873,3.3897,3.3888,3.3888,3.3886,3.3882,3.3914,3.3861,3.3779,3.377,3.3882,3.3883,3.3884,0,3.3932,3.391,3.3882,3.3879,3.3881,3.3867,3.3867,3.3865,3.3856,3.3847,3.3842,3.3829,3.3821,3.3811,3.3821,3.3841,3.3785,3.3815,3.3786,3.3786,3.3771,3.3771,3.3684,3.3768,3.3769,3.3769,3.3769,0,3.3861,3.3834,3.3854,3.3836,3.3807,3.3824,3.3794,3.3796,3.3795,3.3777,3.3799,3.3782,3.3797,3.3781,3.3789,3.3759,3.3756,3.3758,3.376,3.3755,3.3754,3.3747,3.375,3.3767,3.3767,3.3767,3.3768,0,3.3785,3.3798,3.3769,3.3775,3.3776,3.3753,3.3757,3.3741,3.3748,3.3726,3.3721,3.3731,3.3714,3.3724,3.3705,3.3711,3.3672,3.368,3.3673,3.3675,3.3645,3.3647,3.3549,3.3536,3.363,3.3629,3.3628,0,3.3738,3.3718,3.3723,3.3714,3.3713,3.3698,3.369,3.3707,3.3698,3.3694,3.3677,3.3663,3.3651,3.3622,3.3627,3.3613,3.362,3.3587,3.3618,3.3614,3.3618,3.3618,3.3616,3.3579,3.3578,3.3577,3.3577,0,3.3653,3.3661,3.365,3.3642,3.3633,3.3626,3.3621,3.3612,3.363,3.3618,3.3602,3.3594,3.3577,3.3561,3.355,3.3549,3.3565,3.3568,3.356,3.3553,3.355,3.355,3.3654,3.3569,3.357,3.357,3.3571,3.3571,3.3589,3.3573,3.3574,3.3561,3.356,3.3556,3.3541,3.3547,3.3535,3.3523,3.3534,3.3515,3.3513,3.35,3.3497,3.3481,3.3494,3.3483,3.348,3.3477,3.3472,3.3555,3.3479,3.348,3.348,3.348,3.348,0,3.3504,3.3507,3.3495,3.3489,3.3479,3.3499,3.3495,3.3485,3.3468,3.3466,3.3456,3.3437,3.3423,3.3428,3.3415,3.3402,3.3409,3.3398,3.3397,3.3397,3.3462,3.3469,3.3392,3.3392,3.3392,3.3392,3.3392,3.3392,3.3458,3.3432,3.344,3.3414,3.3416,3.3399,3.3395,3.3391,3.339,3.3369,3.3358,3.3363,3.3363,3.3351,3.3339,3.3341,3.3334,3.332,3.3324,3.3384,3.3392,3.34,3.3407,3.3319,3.3319,3.326,3.326,3.3259]}]]